[[{"header":{"parameterUnit":"m.s-1","parameterCategory":1,"la1":30.2991,"la2":30.254,"lo1":-89.0895,"lo2":-89.0444,"dy":0.0017,"dx":0.0017,"nx":28,"ny":28,"refTime":"2024-06-05T09:00:00:Z","depth":0,"parameterNumber":2,"parameterNumberName":"U-component_of_WINDS"},"data":[0,0,0,0,0,0,0,0,0,0,0,0,0,0,0,0,0,0,0,0,0,0,0,0,0,0,0,0,0,0,0,0,0,0,0,0,0,0,0,0,0,0,0,0,0,0,0,0,0,0,0,0,0,0,0,0,0,0,2.356,2.3561,0,2.3637,2.3638,2.3638,2.3609,2.3607,2.3606,2.3604,2.3683,2.3686,2.369,0,0,0,0,0,0,0,0,0,0,0,0,0,2.3391,2.3394,2.356,2.3561,2.3562,2.3637,2.3638,2.3639,2.3609,2.3607,2.3605,2.3603,2.3681,2.3686,2.369,0,0,0,0,0,0,0,0,0,0,0,0,0,2.3465,2.3395,2.356,2.3557,2.3557,2.3636,2.3638,2.3639,2.361,2.3607,2.3605,2.3602,2.368,2.3685,2.3691,2.3778,0,0,2.3708,2.371,0,0,0,0,0,0,0,0,2.3461,2.3472,2.3556,2.3557,2.3558,2.3611,2.3607,2.3686,2.361,2.359,2.3604,2.3601,2.3661,2.3668,2.3688,2.3782,2.3785,2.3708,2.3712,2.3714,2.3716,0,0,0,0,0,0,0,2.3456,2.3468,2.359,2.3557,2.3558,2.3552,2.3559,2.3621,2.3639,2.3591,2.3589,2.3599,2.3661,2.3683,2.369,2.3786,2.3708,2.3713,2.3717,2.3719,2.3958,2.3961,0,0,0,0,0,0,2.3451,2.3464,2.3588,2.3593,2.3502,2.3557,2.3565,2.3596,2.3638,2.3642,2.3601,2.3597,2.3674,2.3683,2.3692,2.3799,2.3714,2.3719,2.3723,2.3955,2.3959,2.3962,0,0,0,0,0,0,2.3447,2.3462,2.3585,2.3528,2.3543,2.3563,2.3597,2.3599,2.3621,2.3646,2.3649,2.362,2.3673,2.3684,2.3758,2.3801,2.3722,2.3727,2.3952,2.3957,2.3961,2.4012,0,0,0,0,0,0,2.3442,2.3461,2.3494,2.3529,2.3546,2.3649,2.36,2.3603,2.3631,2.3626,2.3664,2.3668,2.3671,2.3749,2.3763,2.3808,2.3731,2.3948,2.3954,2.3959,2.4007,2.4018,2.4028,0,0,0,0,0,2.3436,2.3505,2.3496,2.3511,2.3588,2.3651,2.3661,2.3663,2.3634,2.3668,2.3684,2.3667,2.3794,2.3757,2.3772,2.3819,2.3945,2.3952,2.3959,2.4002,2.4016,2.4028,0,0,0,0,0,0,2.3474,2.351,2.3499,2.3581,2.3614,2.3646,2.3689,2.3678,2.3719,2.3713,2.3714,2.3723,2.3799,2.3816,2.3774,2.3907,2.3865,2.3876,2.3893,2.3906,2.3917,2.3912,2.3736,0,0,0,0,0,2.3492,2.354,2.3569,2.3638,2.3655,2.3669,2.3697,2.3696,2.3729,2.3743,2.3764,2.3798,2.3845,2.3876,2.3921,2.4009,2.4018,2.4049,2.4059,2.4068,2.4077,2.4126,2.4141,2.3984,2.3984,2.3984,0,0,2.353,2.3555,2.3585,2.3647,2.3671,2.3722,2.3681,2.3736,2.3774,2.3751,2.3822,2.3839,2.3877,2.3958,2.3995,2.3975,2.4122,2.4076,2.4083,2.4087,2.4135,2.415,2.4163,2.3989,2.3988,2.3987,0,0,2.3625,2.3648,2.3709,2.3735,2.3774,2.3783,2.3798,2.3832,2.3843,2.3914,2.3899,2.3944,2.4025,2.4053,2.4078,2.4185,2.4171,2.4199,2.4254,2.4303,2.4315,2.4326,2.4366,2.438,2.4208,2.4208,2.4208,0,2.3667,2.3742,2.3742,2.3799,2.3827,2.3809,2.3873,2.3898,2.3949,2.3969,2.3945,2.4049,2.4072,2.4161,2.4187,2.4207,2.4225,2.4196,2.4313,2.4324,2.4334,2.4372,2.4387,2.4212,2.4211,2.4211,2.4211,0,2.3793,2.3845,2.389,2.3941,2.3974,2.4033,2.4044,2.4077,2.4074,2.4086,2.4159,2.4187,2.4238,2.4259,2.4256,2.4348,2.4334,2.4312,2.427,2.4353,2.4388,2.4403,2.4216,2.4215,2.4214,2.4213,0,0,2.3914,2.3964,2.3981,2.4004,2.4046,2.4087,2.4146,2.4196,2.4226,2.4262,2.4312,2.4382,2.4363,2.4391,2.439,2.4433,2.4518,2.4405,2.4406,2.4427,2.4623,2.4641,2.4658,2.4509,2.4511,2.4514,2.4621,0,2.4013,2.4117,2.412,2.4215,2.4265,2.4249,2.4301,2.4332,2.4345,2.439,2.4404,2.4455,2.4423,2.4441,2.4482,2.4499,2.4558,2.4491,2.4557,2.456,2.455,2.4676,2.4695,2.4795,2.4635,2.4637,2.4639,0,2.4143,2.4184,2.4284,2.432,2.4341,2.4388,2.4435,2.4477,2.4513,2.4519,2.4552,2.4546,2.4607,2.4563,2.4649,2.4604,2.4631,2.4643,2.4647,2.4655,2.4605,2.4689,2.4826,2.4842,2.466,2.4659,2.4657,0,2.4223,2.4303,2.4374,2.4395,2.4437,2.4471,2.449,2.4524,2.4554,2.4595,2.4616,2.4663,2.469,2.4728,2.4735,2.4702,2.4822,2.4778,2.483,2.483,2.4857,2.4856,2.5003,2.4872,2.4872,2.4872,2.4871,0,2.4335,2.4398,2.4411,2.4455,2.4526,2.4528,2.4598,2.4615,2.4645,2.4692,2.4681,2.4726,2.4732,2.4779,2.4785,2.4857,2.4868,2.4876,2.4878,2.4878,2.4878,2.4897,2.4891,2.4876,2.4875,2.4874,2.4873,0,2.4437,2.4449,2.4525,2.456,2.457,2.4621,2.4651,2.4693,2.4705,2.4766,2.478,2.4799,2.4854,2.4865,2.4929,2.4933,2.5019,2.5012,2.5007,2.5007,2.506,2.5056,2.5226,2.525,2.5102,2.5103,2.5105,0,2.4509,2.4557,2.4597,2.4628,2.4649,2.4699,2.473,2.4735,2.4768,2.4814,2.4851,2.4905,2.4948,2.5037,2.5057,2.5106,2.5102,2.5158,2.5109,2.5109,2.5105,2.5103,2.5109,2.5168,2.517,2.5171,2.5172,0,2.4634,2.4638,2.4683,2.4732,2.477,2.4808,2.4844,2.487,2.488,2.4918,2.4974,2.5007,2.5074,2.5128,2.5178,2.5199,2.5188,2.5187,2.5203,2.5205,2.52,2.5205,2.5035,2.5184,2.5182,2.5182,2.5181,2.5181,2.4725,2.4767,2.4803,2.4854,2.4882,2.4916,2.4959,2.4976,2.5023,2.5077,2.5077,2.5139,2.5175,2.5241,2.5265,2.5314,2.5297,2.5318,2.5324,2.533,2.5335,2.5191,2.5323,2.5323,2.5322,2.5322,2.5322,0,2.4852,2.4874,2.4921,2.4972,2.5013,2.4999,2.5038,2.5074,2.5128,2.5163,2.5206,2.5271,2.5324,2.5348,2.54,2.5435,2.5432,2.5449,2.5447,2.5453,2.5347,2.533,2.5451,2.5451,2.5451,2.5451,2.5451,2.5451,2.4923,2.4995,2.5003,2.5089,2.511,2.5171,2.5195,2.5227,2.5255,2.5328,2.5372,2.5387,2.5418,2.5473,2.5521,2.5527,2.5548,2.5568,2.5571,2.5473,2.546,2.5447,2.5431,2.5572,2.5572,2.5673,2.5674,2.5675]},{"header":{"parameterUnit":"m.s-1","parameterCategory":1,"la1":30.2991,"la2":30.254,"lo1":-89.0895,"lo2":-89.0444,"dy":0.0017,"dx":0.0017,"nx":28,"ny":28,"refTime":"2024-06-05T09:00:00:Z","depth":0,"parameterNumber":3,"parameterNumberName":"V-component_of_WINDS"},"data":[0,0,0,0,0,0,0,0,0,0,0,0,0,0,0,0,0,0,0,0,0,0,0,0,0,0,0,0,0,0,0,0,0,0,0,0,0,0,0,0,0,0,0,0,0,0,0,0,0,0,0,0,0,0,0,0,0,0,-0.7045,-0.7046,0,-0.7092,-0.7092,-0.7093,-0.7114,-0.7114,-0.7114,-0.7114,-0.7161,-0.7162,-0.7164,0,0,0,0,0,0,0,0,0,0,0,0,0,-0.6976,-0.6977,-0.7045,-0.7046,-0.7047,-0.7092,-0.7092,-0.7093,-0.7114,-0.7114,-0.7114,-0.7114,-0.7161,-0.7162,-0.7164,0,0,0,0,0,0,0,0,0,0,0,0,0,-0.7012,-0.6977,-0.7045,-0.7063,-0.7065,-0.7091,-0.7092,-0.7093,-0.7114,-0.7114,-0.7114,-0.7114,-0.716,-0.7162,-0.7164,-0.7177,0,0,-0.717,-0.7171,0,0,0,0,0,0,0,0,-0.701,-0.7015,-0.7059,-0.7061,-0.7064,-0.7097,-0.7085,-0.7121,-0.7114,-0.7095,-0.7114,-0.7114,-0.714,-0.7143,-0.7152,-0.7179,-0.7181,-0.717,-0.7171,-0.7172,-0.7173,0,0,0,0,0,0,0,-0.7008,-0.7013,-0.7064,-0.706,-0.7063,-0.7068,-0.7073,-0.7092,-0.7117,-0.7097,-0.7099,-0.7104,-0.7141,-0.715,-0.7153,-0.7182,-0.717,-0.7172,-0.7173,-0.7174,-0.7223,-0.7223,0,0,0,0,0,0,-0.7002,-0.7011,-0.7062,-0.7065,-0.7036,-0.7069,-0.7075,-0.7086,-0.7117,-0.7122,-0.7104,-0.7105,-0.7147,-0.7151,-0.7155,-0.7173,-0.7172,-0.7174,-0.7175,-0.7223,-0.7223,-0.7223,0,0,0,0,0,0,-0.7001,-0.7007,-0.706,-0.7038,-0.7046,-0.7071,-0.7083,-0.7087,-0.7097,-0.7122,-0.7127,-0.7109,-0.7147,-0.7152,-0.7172,-0.7175,-0.7175,-0.7176,-0.7222,-0.7223,-0.7223,-0.7208,0,0,0,0,0,0,-0.6999,-0.7006,-0.7011,-0.7038,-0.7047,-0.7076,-0.7083,-0.7088,-0.71,-0.7101,-0.7128,-0.7132,-0.7147,-0.7169,-0.7173,-0.7177,-0.7178,-0.7222,-0.7222,-0.7223,-0.7208,-0.7208,-0.7207,0,0,0,0,0,-0.6996,-0.7005,-0.7011,-0.7017,-0.7054,-0.7076,-0.7081,-0.7098,-0.71,-0.7106,-0.7122,-0.7132,-0.7174,-0.717,-0.7176,-0.7181,-0.7222,-0.7222,-0.7223,-0.7209,-0.7208,-0.7207,0,0,0,0,0,0,-0.6977,-0.7009,-0.7016,-0.7034,-0.7052,-0.708,-0.7087,-0.7096,-0.7114,-0.7115,-0.7135,-0.7141,-0.7159,-0.7172,-0.7167,-0.7195,-0.7199,-0.72,-0.7186,-0.7186,-0.7185,-0.7181,-0.718,0,0,0,0,0,-0.6975,-0.6991,-0.7018,-0.7031,-0.704,-0.7062,-0.7072,-0.7084,-0.7103,-0.7111,-0.7129,-0.7147,-0.7165,-0.7176,-0.7194,-0.721,-0.7217,-0.7217,-0.7216,-0.7215,-0.7216,-0.7227,-0.7227,-0.7224,-0.7224,-0.7224,0,0,-0.6971,-0.699,-0.6999,-0.7028,-0.7043,-0.7059,-0.7068,-0.7084,-0.7096,-0.7113,-0.7133,-0.7146,-0.7169,-0.7187,-0.7196,-0.7198,-0.7219,-0.7216,-0.7215,-0.7216,-0.7227,-0.7227,-0.7228,-0.7224,-0.7224,-0.7224,0,0,-0.6972,-0.6988,-0.7001,-0.7016,-0.7039,-0.7054,-0.7057,-0.7083,-0.7093,-0.7113,-0.7127,-0.7141,-0.7171,-0.7186,-0.7198,-0.7205,-0.7214,-0.721,-0.7207,-0.7217,-0.7217,-0.7217,-0.722,-0.7221,-0.7211,-0.7211,-0.7211,0,-0.6964,-0.6988,-0.7006,-0.7022,-0.7034,-0.7051,-0.7064,-0.7078,-0.7106,-0.7114,-0.7117,-0.7155,-0.7171,-0.7193,-0.7195,-0.7203,-0.7208,-0.7207,-0.7215,-0.7216,-0.7216,-0.7219,-0.722,-0.721,-0.721,-0.721,-0.721,0,-0.6977,-0.6993,-0.7001,-0.7028,-0.7041,-0.7055,-0.7076,-0.7087,-0.7098,-0.7112,-0.7133,-0.7153,-0.7175,-0.7181,-0.7191,-0.7205,-0.7206,-0.7211,-0.7215,-0.7216,-0.7219,-0.722,-0.7209,-0.7209,-0.721,-0.721,0,0,-0.6967,-0.7004,-0.7006,-0.7018,-0.7046,-0.7059,-0.7074,-0.7096,-0.7105,-0.7124,-0.7137,-0.7162,-0.7168,-0.7181,-0.7194,-0.7202,-0.7207,-0.7207,-0.7208,-0.7207,-0.7224,-0.7219,-0.722,-0.7214,-0.7214,-0.7214,-0.7222,0,-0.6971,-0.6999,-0.7016,-0.7037,-0.7053,-0.707,-0.7083,-0.7101,-0.7115,-0.7131,-0.7147,-0.7164,-0.717,-0.7178,-0.7188,-0.7205,-0.7211,-0.7204,-0.7227,-0.7227,-0.722,-0.7221,-0.7217,-0.7223,-0.7223,-0.7223,-0.7223,0,-0.698,-0.6998,-0.7021,-0.7047,-0.7054,-0.7066,-0.7087,-0.7102,-0.7123,-0.7133,-0.7148,-0.716,-0.7178,-0.718,-0.7204,-0.7199,-0.721,-0.7219,-0.722,-0.7223,-0.7225,-0.7224,-0.7225,-0.7226,-0.7225,-0.7225,-0.7225,0,-0.697,-0.7001,-0.7018,-0.7028,-0.7059,-0.7067,-0.708,-0.7101,-0.7113,-0.7132,-0.714,-0.7161,-0.7172,-0.7188,-0.7206,-0.7206,-0.7228,-0.7232,-0.7237,-0.7236,-0.7241,-0.724,-0.7243,-0.7247,-0.7247,-0.7247,-0.7247,0,-0.6973,-0.6986,-0.7014,-0.7025,-0.7041,-0.7061,-0.7075,-0.709,-0.7109,-0.7123,-0.7139,-0.7151,-0.7175,-0.719,-0.7205,-0.7223,-0.7228,-0.7236,-0.724,-0.7235,-0.7234,-0.7242,-0.7242,-0.7247,-0.7247,-0.7247,-0.7247,0,-0.6965,-0.6984,-0.7004,-0.7032,-0.7039,-0.7049,-0.7073,-0.7084,-0.7099,-0.7117,-0.7122,-0.7146,-0.7166,-0.7185,-0.7212,-0.7221,-0.7239,-0.7244,-0.7232,-0.7234,-0.7237,-0.7237,-0.7246,-0.7248,-0.725,-0.725,-0.725,0,-0.6965,-0.6976,-0.7005,-0.7015,-0.7028,-0.7045,-0.7057,-0.7077,-0.709,-0.7115,-0.7123,-0.7144,-0.7162,-0.7193,-0.7212,-0.7233,-0.7238,-0.724,-0.7241,-0.7236,-0.7238,-0.7238,-0.7239,-0.7239,-0.7239,-0.7239,-0.7239,0,-0.6964,-0.6974,-0.6991,-0.7012,-0.7026,-0.7044,-0.7062,-0.7069,-0.7093,-0.7106,-0.7127,-0.714,-0.7168,-0.7188,-0.7211,-0.7225,-0.7236,-0.7238,-0.7241,-0.7235,-0.7228,-0.7232,-0.723,-0.7238,-0.7238,-0.7238,-0.7238,-0.7238,-0.6961,-0.6971,-0.6993,-0.7012,-0.7028,-0.7044,-0.7056,-0.7073,-0.709,-0.7114,-0.7125,-0.7145,-0.7167,-0.7199,-0.7212,-0.7229,-0.7232,-0.7235,-0.7236,-0.7236,-0.7235,-0.7225,-0.7233,-0.7233,-0.7233,-0.7233,-0.7233,0,-0.6961,-0.6976,-0.6993,-0.7018,-0.7033,-0.7042,-0.7062,-0.7074,-0.7092,-0.7111,-0.7128,-0.7152,-0.7172,-0.7194,-0.7215,-0.7224,-0.723,-0.7229,-0.7229,-0.7232,-0.7231,-0.7227,-0.7224,-0.7224,-0.7224,-0.7224,-0.7224,-0.7224,-0.6963,-0.6981,-0.6992,-0.7018,-0.7034,-0.7054,-0.7064,-0.708,-0.7095,-0.7121,-0.7138,-0.7152,-0.7172,-0.7195,-0.7214,-0.722,-0.7227,-0.7225,-0.7233,-0.7231,-0.7232,-0.7232,-0.7229,-0.7227,-0.7227,-0.7232,-0.7232,-0.7232]}]]